TimeHST,TemperatureF,Dew PointF,Humidity,Sea Level PressureIn,VisibilityMPH,Wind Direction,Wind SpeedMPH,Gust SpeedMPH,PrecipitationIn,Events,Conditions,WindDirDegrees,DateUTC
12:56 AM,68.0,63.9,87,30.11,10.0,ENE,8.1,-,N/A,,Clear,70,2013-05-16 10:56:00
1:56 AM,66.2,64.4,94,30.15,10.0,ENE,5.8,-,N/A,,Partly Cloudy,60,2013-05-16 11:56:00
2:56 AM,68.0,63.0,84,30.06,10.0,NE,9.2,-,N/A,,Clear,40,2013-05-16 12:56:00
3:56 AM,68.0,63.0,84,30.07,10.0,ENE,9.2,-,N/A,,Clear,70,2013-05-16 13:56:00
4:56 AM,66.9,63.0,87,30.07,10.0,NE,8.1,-,N/A,,Clear,50,2013-05-16 14:56:00
5:56 AM,66.9,63.0,87,30.09,10.0,NE,3.5,-,N/A,,Clear,40,2013-05-16 15:56:00
6:56 AM,70.0,63.9,81,30.10,10.0,East,6.9,-,N/A,,Clear,80,2013-05-16 16:56:00
7:56 AM,74.8,63.0,66,30.11,10.0,East,6.9,-,N/A,,Clear,80,2013-05-16 17:56:00
8:56 AM,77.9,63.9,62,30.11,10.0,NE,10.4,-,N/A,,Scattered Clouds,50,2013-05-16 18:56:00
9:56 AM,79.9,64.9,60,30.10,10.0,NE,13.8,-,N/A,,Scattered Clouds,50,2013-05-16 19:56:00
10:56 AM,78.8,64.4,61,30.16,10.0,ENE,8.1,-,N/A,,Mostly Cloudy,70,2013-05-16 20:56:00
11:56 AM,77.9,63.9,62,30.09,10.0,West,4.6,-,N/A,,Mostly Cloudy,260,2013-05-16 21:56:00
12:38 PM,78.8,64.4,61,30.13,10.0,NE,17.3,-,N/A,,Mostly Cloudy,50,2013-05-16 22:38:00
12:56 PM,81.9,64.9,56,30.05,10.0,NE,21.9,-,N/A,,Partly Cloudy,40,2013-05-16 22:56:00
1:56 PM,82.4,66.2,58,30.10,10.0,NNE,20.7,26.5,N/A,,Partly Cloudy,20,2013-05-16 23:56:00
2:56 PM,79.0,64.9,62,30.03,10.0,NE,20.7,-,N/A,,Scattered Clouds,40,2013-05-17 00:56:00
3:32 PM,77.0,64.4,65,30.10,10.0,East,12.7,16.1,N/A,,Mostly Cloudy,80,2013-05-17 01:32:00
3:56 PM,75.9,64.9,69,30.04,10.0,NE,15.0,-,N/A,,Overcast,50,2013-05-17 01:56:00
4:11 PM,75.2,64.4,69,30.09,10.0,NE,23.0,28.8,N/A,,Mostly Cloudy,50,2013-05-17 02:11:00
4:56 PM,77.0,65.8,68,30.04,10.0,NE,20.7,-,N/A,,Clear,40,2013-05-17 02:56:00
5:56 PM,74.8,64.9,71,30.05,10.0,NNE,19.6,27.6,N/A,,Partly Cloudy,30,2013-05-17 03:56:00
6:56 PM,70.9,63.9,78,30.06,10.0,NE,18.4,24.2,N/A,,Clear,40,2013-05-17 04:56:00
7:56 PM,70.0,63.0,78,30.07,10.0,NE,12.7,-,N/A,,Clear,40,2013-05-17 05:56:00
8:45 PM,71.6,62.6,73,30.14,10.0,East,5.8,-,N/A,,Mostly Cloudy,90,2013-05-17 06:45:00
8:56 PM,70.0,61.9,75,30.09,10.0,NE,5.8,-,N/A,,Mostly Cloudy,50,2013-05-17 06:56:00
9:05 PM,69.8,62.6,78,30.15,10.0,East,4.6,-,N/A,,Mostly Cloudy,90,2013-05-17 07:05:00
9:56 PM,70.0,63.9,81,30.09,10.0,NE,11.5,-,N/A,,Partly Cloudy,40,2013-05-17 07:56:00
10:56 PM,70.0,64.9,84,30.09,10.0,NE,10.4,-,N/A,,Clear,50,2013-05-17 08:56:00
11:56 PM,68.9,63.9,84,30.08,10.0,ENE,10.4,-,N/A,,Clear,70,2013-05-17 09:56:00